Flag for Belgium Weather past 2 weeks in Kortrijk, Belgium

Now
43 °F

Clear.


Feels Like: 40 °F
Forecast: 43 / 64 °F
Wind: 5 mph from Northeast

Location: Lille Airport

Current Time: Apr 20, 2015 at 4:01:16 AM

Latest Report: Apr 20, 2015 at 3:30 AM


Visibility: N/A

Pressure: 30.24 "Hg

Humidity: 87%

Dew point: 39 °F

Location of KortrijkLocation

Historic Weather in Kortrijk — Graph

°F

Kortrijk temperature yesterday

Maximum temperature yesterday: 57 °F (at 2:30 PM)
Minimum temperature yesterday: 41 °F (at 5:30 AM)
Average temperature yesterday: 49 °F

Past Weeks' High & Low Weather Summary

 TemperatureHumidityPressure
High79 °F (Apr 15, 4:30 PM)100% (Apr 6, 4:30 AM)30.66 "Hg (Apr 6, 4:30 AM)
Low32 °F (Apr 7, 5:30 AM)23% (Apr 15, 5:30 PM)29.89 "Hg (Apr 16, 5:30 PM)
Average52 °F68%30.26 "Hg
* Reported Apr 5 3:00 AM — Apr 20 3:00 AM, Kortrijk, Weather by CustomWeather, © 2015

Note: Actual official high and low records may vary slightly from our data, if they occured in-between our weather recording intervals... More about our weather records

Advertising

Kortrijk weather history for previous 24 hours

 ConditionsComfort  
Time TempWeatherWind HumidityBarometerVisibility
3:00 AM
Mon, Apr 20
45 °FClear.7 mph81%30.24 "HgN/A
2:30 AM45 °FClear.7 mph81%30.24 "HgN/A
2:00 AM45 °FClear.8 mph81%30.21 "HgN/A
1:30 AM45 °FClear.9 mph81%30.21 "HgN/A
1:00 AM45 °FClear.9 mph81%30.24 "HgN/A
12:30 AM46 °FClear.12 mph76%30.21 "HgN/A
12:00 AM46 °FClear.13 mph76%30.21 "HgN/A
11:30 PM
Sun, Apr 19
46 °FClear.13 mph76%30.21 "HgN/A
11:00 PM48 °FClear.13 mph71%30.21 "HgN/A
10:30 PM48 °FClear.14 mph71%30.18 "Hg10 mi
10:00 PM48 °FClear.14 mph71%30.18 "Hg10 mi
9:30 PM50 °FSunny.13 mph67%30.18 "Hg10 mi
9:00 PM50 °FSunny.13 mph67%30.15 "Hg10 mi
8:30 PM52 °FSunny.13 mph62%30.15 "Hg10 mi
8:00 PM55 °FSunny.12 mph51%30.15 "Hg10 mi
7:30 PM55 °FSunny.13 mph47%30.15 "Hg10 mi
7:00 PM55 °FSunny.14 mph47%30.15 "Hg10 mi
6:00 PM55 °FScattered clouds.12 mph47%30.12 "HgN/A
5:30 PM57 °FScattered clouds.10 mph44%30.12 "HgN/A
5:00 PM57 °FScattered clouds.10 mph44%30.12 "HgN/A
4:30 PM55 °FScattered clouds.10 mph44%30.12 "HgN/A
4:00 PM57 °FScattered clouds.12 mph41%30.15 "HgN/A
3:30 PM57 °FScattered clouds.9 mph44%30.15 "HgN/A
3:00 PM57 °FScattered clouds.9 mph44%30.15 "HgN/A
2:30 PM57 °FScattered clouds.9 mph44%30.15 "HgN/A
2:00 PM55 °FScattered clouds.8 mph47%30.15 "HgN/A
1:30 PM54 °FScattered clouds.9 mph54%30.15 "HgN/A
1:00 PM54 °FScattered clouds.10 mph54%30.18 "HgN/A
12:30 PM52 °FPartly sunny.9 mph58%30.18 "HgN/A
12:00 PM52 °FPartly sunny.9 mph58%30.18 "HgN/A
11:30 AM50 °FScattered clouds.12 mph62%30.18 "HgN/A
11:00 AM48 °FScattered clouds.10 mph66%30.18 "HgN/A
10:30 AM46 °FScattered clouds.10 mph71%30.18 "HgN/A
10:00 AM45 °FScattered clouds.13 mph76%30.18 "HgN/A
9:30 AM45 °FPassing clouds.15 mph81%30.21 "HgN/A
9:00 AM43 °FPassing clouds.15 mph81%30.21 "HgN/A
8:30 AM43 °FPassing clouds.13 mph81%30.21 "Hg6 mi
8:00 AM41 °FPassing clouds.12 mph87%30.21 "Hg6 mi
7:30 AM41 °FPassing clouds.10 mph87%30.18 "Hg6 mi
7:00 AM41 °FPassing clouds.10 mph87%30.18 "Hg6 mi
6:30 AM41 °FPassing clouds.9 mph87%30.18 "HgN/A
6:00 AM41 °FClear.9 mph87%30.18 "Hg10 mi
5:30 AM41 °FClear.12 mph87%30.18 "Hg10 mi
5:00 AM43 °FClear.12 mph81%30.21 "Hg10 mi
4:30 AM43 °FClear.12 mph81%30.21 "HgN/A
4:00 AM43 °FClear.12 mph76%30.21 "HgN/A
Weather by CustomWeather, © 2015

See weather overviewHow to use our weather pages